Location: Chevoux
(46.3801°N, 4.9476°E)
Time: 02:37:55
(UTC+00:00)

Explorer 11/Cluster Stage 4 - Visible Passes

Search period start: 12 May 2021 00:00
Search period end: 22 May 2021 00:00
Orbit: 467 x 1257 km, 28.8° (Epoch: 11 May)

Date Brightness Start Highest point End Pass type
(mag) Time Alt. Az. Time Alt. Az. Time Alt. Az.
12 May 8.7 20:59:42 10° SSW 21:05:00 19° S 21:05:06 19° S visible
13 May 8.6 20:48:07 10° SW 20:53:39 20° S 20:55:05 19° SSE visible
13 May 9.3 22:36:21 10° SW 22:37:14 12° SW 22:37:14 12° SW visible
14 May 8.6 20:36:37 10° SW 20:42:18 21° S 20:44:53 18° SSE visible
14 May 9.1 22:25:00 10° SW 22:27:01 15° SW 22:27:01 15° SW visible
15 May 8.7 20:25:10 10° SW 20:30:56 21° S 20:34:31 16° SE visible
15 May 9.0 22:13:41 10° SW 22:16:38 17° SSW 22:16:38 17° SSW visible
16 May 8.7 20:13:47 10° SW 20:19:34 22° S 20:24:03 14° SE visible
16 May 8.9 22:02:26 10° SW 22:06:09 17° SSW 22:06:09 17° SSW visible
17 May 8.7 20:02:28 10° SW 20:08:11 22° S 20:13:29 12° SE visible
17 May 8.9 21:51:15 10° SW 21:55:34 17° SSW 21:55:34 17° SSW visible
18 May 8.8 19:51:13 10° SW 19:56:49 21° S 20:02:37 10° SE visible
18 May 8.9 21:40:09 10° SW 21:44:48 16° SSW 21:44:56 16° SSW visible
19 May 8.8 19:40:02 10° SW 19:45:28 21° S 19:51:09 10° SE visible
19 May 9.0 21:29:10 10° SW 21:33:25 15° SSW 21:34:15 15° SSW visible
20 May 9.1 21:18:20 10° SW 21:22:02 14° SSW 21:23:31 13° S visible
21 May 9.2 21:07:42 10° SW 21:10:40 12° SSW 21:12:49 11° S visible
